Location: Newark
(36.0797°N, 3.9744°E)
Time: 13:11:45
(UTC+00:00)

Vanguard 2 Rocket - Visible Passes

Search period start: 08 December 2019 00:00
Search period end: 18 December 2019 00:00
Orbit: 554 x 3326 km, 32.9° (Epoch: 08 December)

Date Brightness Start Highest point End Pass type
(mag) Time Alt. Az. Time Alt. Az. Time Alt. Az.
08 Dec 8.6 17:48:19 10° SW 18:01:54 52° SSE 18:07:08 24° E visible
08 Dec 8.6 20:06:03 10° W 20:12:56 40° WSW 20:12:56 40° WSW visible
09 Dec 9.2 16:46:29 10° SW 17:01:23 45° SSE 17:10:20 10° E visible
09 Dec 7.7 19:04:03 10° WSW 19:16:15 68° S 19:16:50 66° SSE visible
09 Dec 10.0 21:21:48 10° W 21:22:38 13° W 21:22:38 13° W visible
10 Dec 8.4 18:01:47 10° WSW 18:16:03 64° SSE 18:20:43 31° E visible
10 Dec 8.9 20:20:10 10° W 20:26:31 36° WSW 20:26:31 36° WSW visible
11 Dec 9.0 16:59:31 10° SW 17:15:30 58° SSE 17:24:35 11° E visible
11 Dec 7.7 19:18:03 10° W 19:30:24 73° S 19:30:24 73° S visible
11 Dec 10.2 21:36:01 10° W 21:36:12 11° W 21:36:12 11° W visible
12 Dec 8.2 18:15:35 10° WSW 18:30:13 72° S 18:34:17 38° E visible
12 Dec 9.1 20:34:19 10° W 20:40:05 32° W 20:40:05 32° W visible
13 Dec 8.8 17:13:01 10° WSW 17:29:37 68° SSE 17:38:09 14° E visible
13 Dec 7.9 19:32:09 10° W 19:43:58 70° SW 19:43:58 70° SW visible
14 Dec 8.1 18:29:36 10° W 18:44:23 76° S 18:47:52 45° ESE visible
14 Dec 9.3 20:48:30 10° W 20:53:40 28° W 20:53:40 28° W visible
15 Dec 8.7 17:26:50 10° WSW 17:43:45 75° S 17:51:46 18° E visible
15 Dec 8.2 19:46:17 10° W 19:57:34 61° SW 19:57:34 61° SW visible
16 Dec 8.1 18:43:41 10° W 18:58:32 74° S 19:01:30 50° ESE visible
16 Dec 9.6 21:02:47 10° W 21:07:19 23° W 21:07:19 23° W visible
17 Dec 8.7 17:40:51 10° W 17:57:54 78° S 18:05:27 21° E visible
17 Dec 8.5 20:00:27 10° W 20:11:16 51° SW 20:11:16 51° SW visible
